Tracking 29606 objects as of 19-Sep-2024
HD Live streaming from Space Station
objects crossing your sky now

FLOCK 4V 8

Track FLOCK 4V 8 now!
10-day predictions
FLOCK 4V 8 is classified as:


NORAD ID: 46288
Int'l Code: 2020-061S
Perigee: 408.2 km
Apogee: 413.8 km
Inclination: 97.3 °
Period: 92.6 minutes
Semi major axis: 6781 km
RCS: Unknown
Launch date: September 3, 2020
Source: United States (US)
Launch site: FRENCH GUIANA (FRGUI)
Your satellite tracking list
Your tracking list is empty




NASA's NSSDC Master Catalog

Two Line Element Set (TLE):
1 46288U 20061S   24262.76259513  .00078375  00000-0  11853-2 0  9991
2 46288  97.3457 337.8418 0004145 230.1965 129.8924 15.54421753224346
Source of the keplerian elements: AFSPC